Vertical_Velocity
0 0 1 -1 -4 -2 1 3 -2 -1 2 1 -1 -2 -2 -1 -1 1 -0 -1 -1 -1 -1 -2 -2 -1 -1 -2 -1 -2 -1 -1 -1 1 -0 0 1 1 0 0 0 -0 1 -1 -1 -0 -2 -2 -0
1 -0 1 -1 -5 -1 1 2 0 1 1 2 -1 -1 -3 0 2 1 -0 -0 -0 -0 -1 -1 0 -0 -2 -1 -1 -1 -0 -1 -1 0 -0 -1 0 1 -0 0 0 -0 -0 0 0 -2 -0 -3 -2
1 1 -1 -1 -3 -1 0 0 -1 2 1 2 2 -1 -2 -1 0 -1 3 -1 -1 1 0 0 -0 -1 -1 -0 0 -1 -1 -1 -1 -1 -0 -0 -1 -1 -1 -1 -0 -0 -0 -1 0 -1 -1 -1 -1
1 1 0 -1 -3 -1 -1 1 -1 -1 1 3 1 -1 -2 -1 1 -1 0 2 -1 -1 0 -1 -1 -1 -1 1 -0 -0 0 -1 -1 0 -1 -1 -1 -2 -2 -1 0 1 -0 0 -1 -1 -1 -1 -1
1 1 0 -3 -2 -1 -1 -1 1 1 -1 2 2 -1 2 -3 -1 -0 -0 -0 1 -0 -2 -0 -0 -1 -1 1 -1 -0 1 1 -1 -0 0 -0 -1 -0 -1 -0 -1 -0 -0 -2 -2 -2 -2 -2 -1
2 0 -1 -2 -0 -1 -0 1 1 -1 0 1 -0 -2 3 1 -1 0 -1 -1 -0 -1 -0 -1 -1 -1 -2 -0 -2 -0 1 -1 0 0 -1 -2 -1 -1 0 -1 -1 -0 -1 -2 -2 0 1 -1 -0
-0 -2 -4 0 -2 1 -0 1 1 -1 1 2 -5 -3 2 1 0 -2 1 1 1 1 -1 -1 -1 -1 -1 -1 -1 -1 -0 -0 0 -0 0 -0 -0 -1 -1 -1 -1 -1 -1 -1 -0 0 -1 -3 -2
1 -3 -5 2 3 -1 0 1 1 -1 1 3 -4 -2 0 0 -1 -1 -1 -1 0 -1 -1 -0 -2 -1 -0 -2 -1 -1 1 -1 -1 -2 -1 -1 0 0 1 2 2 -2 -0 0 -1 -1 -1 -1 -1
-2 -3 -2 2 1 -2 -1 1 1 1 -0 1 1 -3 0 1 -0 -0 1 1 -1 -2 0 -0 -0 -1 -0 -2 -2 -2 -1 -0 -2 -3 -4 -2 -2 -0 -1 2 3 2 1 -0 -1 -0 -1 -2 0
-2 -2 -2 2 0 -3 0 1 0 1 0 -2 0 0 -1 -1 -0 1 -0 -1 -1 -0 -1 0 -1 -0 -0 -0 -1 -3 -3 -1 -1 -0 -3 -4 -0 -2 -3 -2 -1 -2 -2 -1 -0 0 -1 1 2
-1 -0 1 1 -2 -0 0 -0 0 0 -0 -1 -0 1 1 0 -0 -2 -2 0 -1 -0 -0 -1 1 -1 -1 -1 -2 -2 -3 -1 -1 -2 -2 -4 -4 -1 -1 1 -1 -3 -3 -0 1 1 2 0 -1
-3 -1 1 -1 -0 1 1 1 -0 0 -0 -2 -0 -2 -0 -1 -0 0 0 1 -1 -0 1 -1 0 -0 -1 -0 -2 -3 -2 -1 -2 -2 -3 -1 -2 -5 -3 -1 1 2 2 2 -1 -1 -1 -4 -2
-2 -1 -1 -0 1 0 1 1 -1 3 -2 -1 1 -2 -1 1 -0 -0 -0 1 1 0 -0 -2 -1 -2 -2 -1 -2 -4 -3 -2 -2 -1 -2 0 0 -1 -3 -2 -1 -1 -0 1 0 -1 -0 -3 -1
2 0 -0 2 0 0 1 0 -0 -0 -1 -1 0 -2 -2 -1 -1 -1 -0 -0 -1 -1 -2 -1 -2 -1 -0 -0 -1 -1 -1 -2 -1 0 -0 0 2 2 -2 -3 -0 0 -1 -1 -1 -3 -3 -4 -1
1 -2 -1 1 0 1 1 1 -0 -1 -1 1 1 -0 -1 -1 -3 -1 0 1 0 -1 -0 -1 -2 -1 -0 -1 0 1 0 -1 -4 -2 -0 -1 0 1 2 -2 -4 -3 -2 -3 -3 -4 -0 -3 -6
-1 -2 -2 1 0 1 1 1 -1 -1 1 1 -0 -0 -0 1 -1 -0 0 0 1 -1 1 0 -1 0 1 -0 -1 -0 1 -2 -0 -0 0 0 -1 1 2 3 -0 -1 -1 0 -1 -0 -5 -2 -3
-2 2 0 -1 -0 -1 0 2 -1 -1 -0 1 0 -1 -1 -0 -1 -0 -0 -1 -2 0 1 0 1 -0 -1 -0 1 0 0 -1 -1 -1 -1 -1 -2 -1 -0 -0 2 -0 -1 0 0 -2 -1 -4 -2
2 -0 1 -2 2 -0 -1 -3 -1 -1 1 2 0 -2 -1 -1 -1 0 -0 0 -1 -1 0 -0 -2 -0 0 1 1 1 -0 -1 1 1 -0 -0 -1 -3 -2 -0 -2 -1 -1 -1 -0 2 -1 4 -3
3 -1 -1 2 1 -0 -1 -3 0 0 0 -0 -1 -1 -1 -1 -1 1 -1 -1 -1 1 -1 -0 1 1 0 -0 -0 -1 -1 -0 1 1 1 0 1 -0 -2 -3 -1 -2 -3 -3 -3 -4 -2 -3 3
-0 -1 3 -0 -0 -2 -1 0 -1 3 0 -1 -0 -1 1 -1 -1 -1 -1 1 -0 -0 -0 -1 -1 -1 -0 -1 -2 -2 -1 0 0 -0 -1 -2 -2 -2 -2 -3 -3 -1 -1 -1 -0 0 -4 -8 4
0 1 1 -1 -2 -1 -1 3 -1 -1 0 -0 -0 -1 1 2 1 -0 1 0 -0 -0 -1 -1 -0 -1 -2 -2 -1 -1 -2 -1 -1 -1 -1 -0 0 -1 -1 -2 -3 -3 -3 -3 -3 -3 -1 -2 -10
1 1 0 -2 0 1 -2 -6 6 1 -2 -1 -1 -1 0 1 0 -1 -1 0 -0 -1 -1 -1 0 0 -0 -2 -1 -1 -0 -1 0 -1 -2 -1 -1 -1 -1 -0 -1 -2 -3 -2 -2 -1 -0 0 1
3 1 1 -0 -2 -5 5 -14 19 1 3 -2 -1 -2 0 1 0 0 0 -1 -1 -1 0 1 0 -1 -1 -0 -1 -0 -1 -2 -2 -2 -0 -0 -2 -1 -2 -2 -2 -1 0 -1 -1 -2 -4 -3 -1
2 2 -0 -2 -2 -9 4 -11 13 6 1 2 -1 -2 -1 -0 -0 -1 1 1 -0 0 -1 -2 0 -1 -1 -0 0 -2 -1 -0 -1 -1 -1 -1 -0 -2 -2 -2 -0 -1 -2 -2 -2 -2 -3 -3 -2
1 -0 -2 -7 -3 -3 4 -10 13 2 0 0 -1 -3 -1 -1 -2 -2 -1 -1 0 0 -2 -2 -3 -1 1 -0 -2 -1 0 -1 -2 -2 -3 -3 -3 -3 -2 -1 -2 -1 -1 -2 -3 -1 -2 -3 0
-1 0 -1 -3 -2 -1 -1 -9 7 2 -0 -2 1 -2 -2 -0 -2 -1 -1 0 1 -2 -2 -0 0 1 -1 -1 -1 -1 0 -1 -2 -3 -3 -3 -1 -2 -3 -2 -2 -2 -2 -2 -3 -2 -3 -5 -4
7 1 1 -1 -3 -6 -4 2 -0 4 -0 -3 -3 -0 1 2 2 2 3 0 -2 0 2 -1 -1 -1 -2 -2 -1 -3 -5 -4 -1 -1 -1 -2 -2 -3 -1 -4 0 -2 -2 -1 -2 -0 -0 -6 0
-0 2 -2 1 -11 -5 -4 -5 2 5 0 -3 -2 -1 -1 1 2 1 0 -0 -0 -2 -3 -2 -0 -1 -2 -0 -2 -3 -2 -3 -3 -2 -1 -4 -3 -5 -4 -1 -2 -0 3 -3 -7 -1 3 -2 4
-1 -1 -1 0 -8 -5 -7 0 4 5 1 -1 1 0 1 -2 -1 0 -0 -0 -1 -1 -1 -1 -2 -1 -2 -2 -1 0 1 -2 -2 -3 -3 -4 -3 -6 -5 -5 -3 -1 2 -0 -3 3 2 -2 1
-3 0 -1 -4 -1 -4 -6 1 2 3 0 -1 1 2 1 1 1 2 1 1 -0 -1 -1 -1 -1 -2 -2 -1 -0 -0 -0 1 0 1 1 3 2 5 -0 -1 -5 -6 3 -2 -5 -3 3 -0 -0
Height
5867 5870 5871 5873 5878 5878 5878 5880 5880 5880 5880 5880 5879 5879 5880 5879 5880 5881 5877 5876 5877 5877 5877 5877 5877 5877 5876 5876 5875 5874 5872 5870 5869 5867 5866 5865 5864 5863 5862 5860 5859 5857 5856 5854 5853 5852 5851 5850 5850
5864 5867 5869 5871 5875 5876 5877 5877 5877 5879 5879 5878 5878 5878 5878 5878 5879 5878 5877 5877 5877 5877 5877 5877 5877 5877 5876 5875 5874 5873 5871 5869 5867 5865 5865 5864 5862 5861 5859 5858 5856 5854 5852 5850 5849 5848 5847 5846 5845
5861 5864 5867 5869 5872 5874 5875 5875 5876 5878 5877 5877 5877 5877 5877 5876 5877 5878 5876 5876 5877 5877 5877 5877 5876 5876 5875 5874 5873 5871 5869 5867 5865 5864 5863 5862 5860 5858 5856 5854 5852 5849 5847 5845 5844 5843 5841 5841 5841
5858 5862 5865 5867 5870 5872 5872 5872 5873 5875 5876 5876 5875 5875 5875 5875 5876 5876 5876 5876 5876 5876 5876 5876 5876 5875 5874 5873 5871 5869 5867 5865 5864 5862 5861 5859 5857 5854 5852 5850 5847 5844 5842 5841 5840 5839 5838 5837 5837
5854 5858 5862 5865 5867 5868 5869 5870 5870 5872 5873 5874 5874 5874 5873 5873 5874 5874 5875 5874 5874 5874 5875 5875 5874 5873 5872 5871 5869 5866 5864 5863 5861 5860 5858 5855 5853 5850 5847 5843 5841 5839 5838 5838 5837 5836 5835 5835 5834
5851 5854 5858 5862 5863 5865 5866 5868 5868 5870 5870 5872 5872 5872 5872 5871 5871 5871 5872 5873 5873 5873 5873 5873 5872 5871 5870 5869 5867 5865 5863 5860 5859 5857 5854 5851 5847 5844 5840 5837 5834 5833 5834 5834 5834 5834 5833 5832 5832
5847 5851 5855 5859 5860 5861 5863 5865 5865 5867 5868 5869 5870 5870 5871 5870 5869 5868 5869 5870 5871 5871 5871 5871 5870 5869 5868 5866 5864 5862 5860 5858 5856 5853 5849 5845 5840 5837 5834 5830 5829 5830 5831 5832 5831 5831 5830 5829 5827
5844 5848 5854 5856 5857 5858 5860 5861 5863 5865 5866 5867 5867 5868 5868 5868 5867 5867 5867 5867 5867 5869 5869 5868 5867 5866 5865 5863 5862 5860 5857 5855 5852 5849 5845 5840 5835 5831 5830 5828 5827 5828 5829 5829 5828 5827 5826 5824 5823
5840 5847 5851 5852 5853 5855 5856 5858 5860 5863 5864 5864 5864 5865 5865 5865 5864 5864 5864 5864 5864 5864 5865 5865 5864 5864 5862 5860 5858 5856 5854 5852 5849 5845 5842 5837 5832 5829 5830 5830 5827 5825 5825 5826 5824 5822 5820 5819 5818
5839 5845 5847 5849 5850 5850 5853 5855 5858 5860 5861 5862 5862 5862 5862 5862 5861 5860 5860 5860 5860 5860 5861 5862 5862 5861 5860 5857 5855 5853 5851 5848 5845 5842 5839 5836 5832 5828 5827 5826 5825 5824 5822 5820 5819 5818 5815 5814 5812
5838 5842 5843 5845 5846 5847 5850 5853 5855 5857 5858 5859 5859 5859 5859 5858 5858 5856 5855 5856 5856 5857 5857 5857 5857 5857 5855 5853 5851 5849 5846 5844 5841 5838 5835 5831 5829 5826 5824 5822 5821 5820 5819 5817 5815 5813 5810 5807 5803
5835 5837 5839 5841 5843 5845 5848 5850 5853 5854 5855 5856 5856 5856 5855 5855 5854 5853 5852 5852 5853 5853 5853 5852 5852 5852 5850 5848 5846 5844 5841 5839 5836 5833 5830 5827 5825 5822 5820 5817 5815 5813 5812 5811 5809 5807 5803 5800 5797
5831 5833 5836 5837 5840 5843 5846 5848 5850 5851 5852 5853 5852 5852 5852 5851 5850 5849 5848 5848 5848 5848 5848 5847 5846 5845 5844 5842 5841 5838 5836 5834 5831 5828 5825 5823 5820 5817 5815 5813 5811 5808 5806 5804 5802 5799 5797 5794 5790
5826 5829 5832 5834 5838 5841 5843 5845 5847 5848 5849 5849 5849 5848 5847 5847 5846 5845 5844 5844 5844 5843 5842 5841 5840 5839 5838 5836 5835 5833 5830 5827 5825 5823 5820 5816 5814 5812 5809 5807 5805 5803 5800 5797 5794 5791 5789 5786 5783
5821 5825 5828 5832 5835 5838 5840 5842 5844 5844 5844 5845 5845 5844 5843 5842 5841 5840 5840 5839 5838 5837 5836 5835 5834 5832 5831 5830 5828 5826 5823 5821 5818 5815 5813 5810 5808 5806 5803 5801 5799 5796 5793 5791 5788 5784 5781 5778 5775
5817 5821 5825 5829 5832 5834 5836 5838 5839 5840 5840 5840 5840 5840 5839 5838 5837 5836 5835 5834 5833 5832 5831 5829 5828 5826 5824 5823 5821 5818 5815 5814 5811 5809 5806 5804 5802 5800 5797 5795 5792 5789 5787 5783 5780 5778 5774 5771 5768
5813 5818 5822 5825 5828 5830 5832 5833 5835 5835 5835 5834 5835 5834 5834 5833 5831 5831 5829 5828 5827 5826 5825 5824 5822 5819 5818 5817 5814 5811 5808 5806 5805 5802 5800 5797 5795 5792 5790 5788 5785 5783 5780 5777 5773 5770 5767 5764 5760
5812 5815 5819 5821 5824 5826 5827 5828 5830 5831 5830 5830 5829 5828 5827 5826 5825 5824 5823 5822 5820 5821 5819 5817 5815 5813 5811 5809 5807 5804 5802 5799 5798 5795 5793 5790 5787 5784 5782 5780 5777 5775 5772 5769 5767 5764 5761 5757 5753
5807 5811 5815 5817 5819 5821 5822 5822 5825 5825 5825 5824 5823 5823 5821 5820 5818 5818 5817 5816 5815 5813 5811 5810 5808 5806 5804 5801 5799 5797 5794 5792 5790 5788 5786 5783 5780 5777 5774 5772 5769 5766 5764 5761 5758 5756 5753 5751 5747
5804 5808 5811 5813 5814 5816 5817 5817 5819 5820 5819 5818 5817 5816 5815 5814 5813 5812 5811 5810 5808 5805 5804 5801 5799 5797 5795 5793 5791 5789 5787 5785 5782 5780 5777 5775 5772 5769 5767 5764 5761 5758 5755 5752 5749 5747 5744 5741 5740
5800 5803 5805 5807 5808 5810 5811 5813 5812 5813 5812 5812 5810 5809 5808 5807 5806 5805 5804 5801 5799 5797 5795 5793 5791 5789 5786 5784 5782 5781 5779 5776 5774 5771 5769 5767 5764 5761 5758 5755 5752 5748 5745 5742 5739 5736 5733 5730 5728
5794 5797 5799 5801 5803 5804 5805 5805 5807 5806 5805 5804 5803 5802 5801 5800 5799 5797 5795 5793 5790 5788 5786 5784 5782 5780 5778 5776 5775 5773 5771 5768 5766 5763 5760 5757 5754 5751 5747 5744 5740 5737 5733 5730 5727 5723 5721 5719 5716
5790 5791 5793 5794 5795 5796 5799 5797 5800 5799 5797 5796 5796 5794 5792 5791 5790 5788 5785 5783 5781 5779 5778 5776 5773 5772 5770 5768 5767 5764 5761 5758 5755 5752 5749 5745 5742 5738 5734 5730 5727 5723 5720 5716 5713 5710 5707 5706 5704
5783 5785 5786 5787 5788 5788 5790 5790 5789 5791 5791 5789 5787 5785 5784 5782 5780 5777 5775 5773 5772 5771 5769 5768 5765 5763 5761 5759 5756 5753 5750 5746 5743 5740 5736 5732 5727 5723 5720 5716 5712 5708 5705 5702 5699 5695 5692 5690 5688
5777 5779 5779 5780 5780 5781 5781 5781 5783 5781 5780 5779 5778 5776 5774 5772 5769 5767 5766 5765 5765 5763 5760 5758 5756 5753 5750 5747 5744 5740 5737 5734 5730 5726 5722 5717 5713 5708 5704 5700 5695 5691 5688 5684 5682 5679 5675 5673 5671
5769 5771 5771 5770 5772 5773 5772 5772 5775 5773 5771 5768 5766 5764 5763 5761 5759 5759 5758 5757 5756 5753 5750 5746 5744 5741 5738 5735 5732 5728 5724 5720 5715 5710 5706 5701 5696 5692 5687 5683 5679 5674 5670 5666 5663 5661 5657 5654 5651
5762 5763 5764 5762 5762 5763 5764 5765 5765 5764 5762 5759 5758 5756 5754 5753 5752 5752 5750 5747 5743 5740 5738 5735 5733 5729 5726 5722 5718 5714 5709 5704 5698 5693 5688 5683 5677 5672 5667 5663 5659 5654 5650 5646 5643 5639 5635 5632 5629
5755 5756 5756 5756 5754 5754 5754 5755 5756 5755 5753 5752 5750 5748 5746 5744 5743 5741 5738 5735 5732 5729 5726 5723 5720 5716 5712 5708 5702 5697 5691 5685 5679 5674 5669 5663 5658 5652 5647 5642 5637 5633 5627 5621 5617 5614 5609 5607 5604
5746 5747 5747 5747 5746 5744 5744 5746 5746 5746 5744 5742 5741 5738 5736 5735 5733 5731 5728 5725 5721 5717 5713 5710 5706 5702 5697 5692 5686 5679 5673 5667 5662 5656 5650 5643 5637 5629 5623 5618 5613 5608 5602 5595 5589 5585 5581 5577 5576
5737 5738 5738 5736 5736 5734 5732 5735 5734 5735 5733 5730 5728 5727 5725 5724 5721 5719 5716 5712 5708 5705 5701 5697 5692 5686 5681 5675 5669 5663 5657 5651 5645 5638 5632 5624 5618 5611 5602 5595 5588 5582 5574 5564 5557 5552 5548 5544 5544